Location: Newark
(40.0251°N, 85.2247°W)
Time: 10:55:35
(UTC+00:00)

Hubble Space Telescope - Pass Details

Date: 21 December 2019
Orbit: 536 x 540 km, 28.5° (Epoch: 20 January)

Event Time Altitude Azimuth Distance (km) Brightness Sun altitude
Exits shadow 10:26:34 14° 164° (SSE) 1,520 3.3 -28.3°
Drops below altitude 10° 10:27:57 10° 145° (SE) 1,783 3.9 -28.0°
Sets 10:30:54 0° 124° (ESE) 2,674 5.3 -27.5°
